Regional Weather Roundup
Issued by NWS Sterling, VA

Home | Current Version | Previous Version | Graphics & Text | Print | Product List | Glossary On
Versions: 1 2 3 4 5 6 7 8 9 10 11 12 13 14 15 16 17 18 19 20 21 22 23 24 25 26 27 28 29 30 31 32 33 34 35 36 37 38 39 40 41 42 43 44 45 46 47 48 49 50
000
ASUS41 KLWX 210610
RWRLWX

REGIONAL WEATHER ROUNDUP
NATIONAL WEATHER SERVICE BALTIMORE MD/WASHINGTON DC
200 AM EDT SUN SEP 21 2014

Note: "FAIR" indicates few or no clouds below 12,000 feet
with no significant weather and/or obstructions to visibility.
 TC=TEMPERATURE CELSIUS

 * =Non NWS site. Station does not report precipitation (e.g. rain,
    snow, etc.), thunder, or fog.

DCZ001-MDZ009-015-VAZ040>042-051-053>054-210700-
WASHINGTON METRO

CITY           SKY/WX    TMP DP  RH WIND       PRES   REMARKS
WASHINGTON NAT PTCLDY    67  60  78 N5        30.01F
DULLES         CLEAR     58  57  97 CALM      30.00F
ANDREWS AFB    PTCLDY    61  60  99 N2        30.00F
QUANTICO       CLEAR     63  60  90 NW5       30.00F
COLLEGE PARK*  CLEAR     61  61 100 CALM      29.99F
LEESBURG*      CLEAR     61  61 100 CALM      30.01F
MANASSAS*      CLEAR     57  57 100 CALM      30.00F
GAITHERSBURG*  CLEAR     57  55  94 CALM      30.04F

$$

MDZ006>007-011-014-210700-
BALTIMORE METRO

CITY           SKY/WX    TMP DP  RH WIND       PRES   REMARKS
BWI AIRPORT    PTCLDY    61  59  93 CALM      30.00F
MD SCIENCE CTR   N/A     68  63  84 MISG      30.00F
MARTIN STATE   CLEAR     63  63 100 CALM      30.01F
ANNAPOLIS      PTCLDY    67  64  90 NW7       30.00F
FORT MEADE*    CLEAR     55  54  94 CALM      30.02F

$$

MDZ012-015-019>023-210700-
MARYLAND EASTERN SHORE

CITY           SKY/WX    TMP DP  RH WIND       PRES   REMARKS
OCEAN CITY     CLOUDY   N/A N/A N/A CALM      29.96F HAZE
SALISBURY      CLOUDY    71  67  87 NW5       29.97F
BAY BRIDGE AP*   N/A     64  63  94 CALM      30.00F
CAMBRIDGE*     MOCLDY    70  64  83 CALM      29.97F
EASTON*        CLOUDY    66  66 100 CALM      30.03F

$$

MDZ017>025-210700-
SOUTHERN MARYLAND

CITY           SKY/WX    TMP DP  RH WIND       PRES   REMARKS
PATUXENT RIVER CLOUDY    69  65  86 NW6       29.98F
ST INIGOES     CLOUDY    68  63  84 N3        29.97F
LEONARDTOWN*   CLOUDY    63  61  94 CALM      29.99F

$$

MDZ003>005-210700-
NORTH CENTRAL MARYLAND

CITY           SKY/WX    TMP DP  RH WIND       PRES   REMARKS
FREDERICK*     CLEAR     61  59  94 SE6       30.02F
HAGERSTOWN APT CLEAR     64  58  80 SE6       30.00F
WESTMINSTER*   CLEAR     59  55  88 CALM      30.01

$$

MDZ501>502-210700-
WESTERN MARYLAND

CITY           SKY/WX    TMP DP  RH WIND       PRES   REMARKS
OAKLAND*       CLEAR     59 N/A N/A S9        30.04F
CUMBERLAND*    CLEAR     61  55  82 CALM      30.01F

$$

VAZ025>031-210700-
SHENANDOAH VALLEY

CITY           SKY/WX    TMP DP  RH WIND       PRES   REMARKS
WINCHESTER*    CLEAR     63  55  77 CALM      29.99F
STAUNTON*      CLEAR     54  51  89 CALM      30.05F

$$

WVZ021-048>050-054>055-210700-
EASTERN WEST VIRGINIA PANHANDLE

CITY           SKY/WX    TMP DP  RH WIND       PRES   REMARKS
MARTINSBURG    CLEAR     60  55  83 CALM      30.00F
PETERSBURG*    CLEAR     57  55  95 CALM      30.00F FOG

$$

VAZ036>039-050-210700-
CENTRAL FOOTHILLS

CITY           SKY/WX    TMP DP  RH WIND       PRES   REMARKS
CHARLOTTESVILL CLEAR     59  57  93 W5        30.01F
ORANGE*        PTCLDY    55  55 100 CALM      30.01F

$$

VAZ055>057-210700-
NORTH AND CENTRAL PIEDMONT

CITY           SKY/WX    TMP DP  RH WIND       PRES   REMARKS
FREDERICKSBRG* CLEAR     61  61 100 CALM      30.00F
STAFFORD*      CLEAR     58  58 100 CALM      30.04F

$$

NCZ024-NYZ072-PAZ021-071-VAZ022-071-210700-
OTHER REGIONAL OBSERVATIONS

CITY           SKY/WX    TMP DP  RH WIND       PRES   REMARKS
NEW YORK CITY  CLOUDY    68  65  90 CALM      30.04F FOG
PHILADELPHIA   CLOUDY    69  64  84 NW7       30.01F
PITTSBURGH     MOCLDY    66  62  87 S7        29.91F
ROANOKE        CLEAR     58  56  93 N5        30.05F
RICHMOND       CLOUDY    67  63  87 N7        29.98F
RALEIGH        MOCLDY    65  61  87 N3        29.96F

$$

ANZ530>537-210700-
MARINE OBSERVATIONS

STATION/POSITION TIME  TEMP    WIND        PRES
                       AIR SEA DIR/SP/G
                 (UTC) (F)     (DEG/KT/KT) (MB)
THOMAS PT LIGHT  0600   69 74   CALM  /  1 1016.8F
BALT KEY BRIDGE  0600   69     330/  3/  4 1016.3F
COVE POINT       0600   69     350/  5/  6 1015.3F
LEWISETTA        0600   71 74  350/  5/  7 1014.6F
SOLOMONS ISLAND  0600      76                N/A
PINEY POINT      0600           10/  6/  7   N/A

$$



USA.gov is the U.S. government's official web portal to all federal, state and local government web resources and services.